Home   Weather   Pond Inlet   Past weeks

Flag for Canada Past Weather in Pond Inlet, Nunavut, Canada — Yesterday and Last 2 Weeks

Now
-8 °F

More clouds than sun.


Feels Like: -22 °F
Forecast: -19 / -16 °F
Wind: 7 mph from South

Location: Pond Inlet

Current Time: Dec 10, 2016 at 3:39:31 pm

Latest Report: Dec 10, 2016 at 3:00 pm


Visibility: 15 mi

Pressure: 29.79 "Hg

Humidity: 77%

Dew Point: -13 °F

Location of Pond InletLocation

Past Weather in Pond Inlet — Graph

°F

Pond Inlet Temperature Yesterday

Maximum temperature yesterday: -8 °F (at 12:00 am)
Minimum temperature yesterday: -24 °F (at 5:00 pm)
Average temperature yesterday: -15 °F

High & Low Weather Summary for the Past Weeks

 TemperatureHumidityPressure
High18 °F (Dec 2, 11:00 am)93% (Dec 2, 6:00 am)30.36 "Hg (Dec 2, 6:00 am)
Low-29 °F (Dec 7, 4:00 am)68% (Dec 7, 1:00 am)29.57 "Hg (Dec 9, 11:00 am)
Average-2 °F84%30.08 "Hg
* Reported Nov 25 2:00 pm — Dec 10 2:00 pm, Pond Inlet, Weather by CustomWeather, © 2016

Note: Actual official high and low records may vary slightly from our data, if they occured in-between our weather recording intervals... More about our weather records

Advertising

Pond Inlet Weather History for the Previous 24 Hours

Scroll right to see more
 ConditionsComfort  
Time TempWeatherWind HumidityBarometerVisibility
2:00 pm
Sat, Dec 10
-8 °FOvercast.6 mph84%29.77 "Hg15 mi
1:00 pm-6 °FOvercast.6 mph77%29.76 "Hg9 mi
12:00 pm-9 °FOvercast.5 mph84%29.75 "Hg9 mi
11:00 am-11 °FOvercast.2 mph84%29.74 "Hg9 mi
10:00 am-11 °FOvercast.2 mph84%29.74 "Hg9 mi
9:00 am-11 °FOvercast.3 mph84%29.73 "Hg9 mi
8:00 am-13 °FPartly sunny.3 mph76%29.74 "Hg9 mi
7:00 am-13 °FPartly sunny.No wind83%29.73 "Hg9 mi
6:00 am-11 °FScattered clouds.2 mph76%29.72 "Hg9 mi
5:00 am-15 °FPassing clouds.2 mph76%29.71 "Hg9 mi
4:00 am-13 °FPassing clouds.2 mph83%29.70 "Hg9 mi
3:00 am-18 °FPassing clouds.7 mph75%29.70 "Hg9 mi
2:00 am-18 °FClear.2 mph75%29.70 "Hg9 mi
1:00 am-17 °FPassing clouds.6 mph76%29.70 "Hg9 mi
12:00 am-17 °FBroken clouds.6 mph76%29.67 "Hg9 mi
11:00 pm
Fri, Dec 9
-18 °FClear.7 mph75%29.66 "Hg9 mi
10:00 pm-22 °FLight snow. Passing clouds.3 mph75%29.65 "Hg9 mi
9:52 pm-20 °FLight snow. Passing clouds.5 mph75%29.65 "Hg9 mi
9:00 pm-20 °FClear.8 mph75%29.65 "Hg9 mi
8:00 pm-18 °FLight snow. Passing clouds.8 mph75%29.64 "Hg9 mi
7:00 pm-18 °FLight snow. Passing clouds.8 mph75%29.63 "Hg12 mi
6:00 pm-20 °FPassing clouds.7 mph75%29.63 "Hg15 mi
5:00 pm-24 °FPassing clouds.8 mph75%29.62 "Hg15 mi
4:00 pm-20 °FPassing clouds.9 mph75%29.61 "Hg15 mi
3:00 pm-20 °FPassing clouds.9 mph75%29.58 "Hg15 mi
Weather by CustomWeather, © 2016

See weather overviewHow to use our weather pages